Weather History for Olympia, WA

Change the Weather History Date:

Thursday, November 1, 2012

  Actual Average Record
Temperature  
Mean Temperature 55 °F 46 °F  
Max Temperature 59 °F 54 °F 71 °F (1954)
Min Temperature 50 °F 39 °F 18 °F (2002)
Degree Days  
Heating Degree Days 10 18  
Month to date heating degree days 10 18  
Since 1 July heating degree days 788 812  
Cooling Degree Days 0 0  
Month to date cooling degree days 0 0  
Year to date cooling degree days 82 106  
Growing Degree Days 4 (Base 50)    
Moisture  
Dew Point 52 °F    
Average Humidity 90    
Maximum Humidity 100    
Minimum Humidity 80    
Precipitation  
Precipitation 0.67 in 0.24 in 1.64 in (2010)
Month to date precipitation 0.67 0.24  
Year to date precipitation 41.37 34.15  
Sea Level Pressure  
Sea Level Pressure 29.85 in    
Wind  
Wind Speed 4 mph (SSW)    
Max Wind Speed 14 mph    
Max Gust Speed 17 mph    
Visibility 6 miles    
Events Rain    
T = Trace of Precipitation, MM = Missing Value Source: NWS Daily Summary

Daily Weather History Graph

Daily Weather History Graph

Search for Another Location

Airport:

Trip Planner

Search our weather history database for the weather conditions in past years. The results will help you decide how hot, cold, wet, or windy it might be!

Date:

Astronomy

Nov. 01, 2012 Rise Set
Actual Time 7:55 AM PDT 5:54 PM PDT
Civil Twilight 7:23 AM PDT 6:26 PM PDT
Nautical Twilight 6:47 AM PDT 7:02 PM PDT
Astronomical Twilight 6:11 AM PDT 7:37 PM PDT
Moon 7:47 PM PDT (11/1) 10:40 AM PDT (11/1)
Length of Visible Light 11h 03m
Length of Day
9h 59m
Waning Gibbous, 92% of the Moon is Illuminated
Nov 1
Waning Gibbous
Nov 6
Last Quarter
Nov 13
New
Nov 20
First Quarter
Nov 28
Full

Hourly Weather History & Observations

Time (PDT) Temp. Dew Point Humidity Pressure Visibility Wind Dir Wind Speed Gust Speed Precip Events Conditions
12:54 AM 51.1 °F 51.1 °F 100% 29.71 in 8.0 mi Calm Calm - 0.00 in   Mostly Cloudy
1:54 AM 51.1 °F 51.1 °F 100% 29.71 in 4.0 mi Calm Calm - 0.06 in Rain Light Rain
2:54 AM 52.0 °F 51.1 °F 97% 29.73 in 3.0 mi West 3.5 mph - 0.12 in Rain Rain
3:05 AM 51.8 °F 51.8 °F 100% 29.73 in 2.5 mi WNW 3.5 mph - 0.04 in Rain Rain
3:19 AM 51.8 °F 51.8 °F 100% 29.73 in 4.0 mi West 5.8 mph - 0.08 in Rain Light Rain
3:38 AM 51.8 °F 51.8 °F 100% 29.73 in 7.0 mi Calm Calm - 0.11 in Rain Light Rain
3:54 AM 51.1 °F 51.1 °F 100% 29.74 in 5.0 mi South 3.5 mph - 0.12 in Rain Light Rain
4:22 AM 51.8 °F 51.8 °F 100% 29.75 in 5.0 mi SE 5.8 mph - 0.04 in Rain Light Rain
4:37 AM 51.8 °F 51.8 °F 100% 29.75 in 4.0 mi South 6.9 mph - 0.07 in Rain Rain
4:47 AM 51.8 °F 51.8 °F 100% 29.75 in 3.0 mi South 8.1 mph - 0.11 in Rain Heavy Rain
4:54 AM 51.8 °F 51.8 °F 100% 29.75 in 3.0 mi South 3.5 mph - N/A Rain Rain
5:54 AM 51.1 °F 51.1 °F 100% 29.75 in 6.0 mi Calm Calm - 0.11 in Rain Light Rain
6:54 AM 52.0 °F 51.1 °F 97% 29.76 in 5.0 mi Calm Calm - 0.03 in Rain Light Rain
7:54 AM 52.0 °F 50.0 °F 93% 29.76 in 10.0 mi South 4.6 mph - 0.02 in Rain Light Rain
8:54 AM 52.0 °F 51.1 °F 97% 29.78 in 9.0 mi Calm Calm - 0.00 in   Overcast
9:54 AM 53.6 °F 51.8 °F 94% 29.80 in 10.0 mi Calm Calm - N/A   Mostly Cloudy
10:54 AM 55.9 °F 51.1 °F 84% 29.82 in 10.0 mi South 11.5 mph - N/A   Overcast
11:54 AM 57.9 °F 51.1 °F 78% 29.84 in 9.0 mi South 10.4 mph - N/A   Mostly Cloudy
12:54 PM 57.0 °F 51.1 °F 81% 29.87 in 10.0 mi SSW 8.1 mph - N/A   Overcast
1:54 PM 57.0 °F 51.1 °F 81% 29.89 in 10.0 mi SSW 9.2 mph - N/A   Overcast
2:28 PM 55.4 °F 55.4 °F 100% 29.89 in 3.0 mi South 6.9 mph - 0.03 in Rain Light Rain
2:54 PM 57.2 °F 55.4 °F 94% 29.90 in 9.0 mi South 5.8 mph - N/A   Overcast
3:54 PM 57.0 °F 53.1 °F 87% 29.91 in 3.0 mi WSW 9.2 mph - 0.00 in Rain Light Rain
4:54 PM 55.9 °F 53.1 °F 90% 29.92 in 10.0 mi SW 3.5 mph - 0.03 in   Mostly Cloudy
5:54 PM 54.0 °F 52.0 °F 93% 29.94 in 9.0 mi SSW 4.6 mph - N/A   Mostly Cloudy
6:54 PM 53.1 °F 52.0 °F 96% 29.96 in 10.0 mi South 3.5 mph - 0.01 in   Mostly Cloudy
7:54 PM 53.1 °F 51.1 °F 93% 29.98 in 10.0 mi SSW 5.8 mph - 0.00 in   Mostly Cloudy
8:54 PM 53.1 °F 52.0 °F 96% 30.00 in 10.0 mi South 3.5 mph - 0.00 in   Overcast
9:54 PM 52.0 °F 51.1 °F 97% 30.02 in 10.0 mi South 4.6 mph - N/A   Overcast
10:54 PM 52.0 °F 52.0 °F 100% 30.03 in 6.0 mi Calm Calm - 0.01 in Rain Light Rain
11:43 PM 50.0 °F 50.0 °F 100% 30.02 in 1.5 mi Calm Calm - 0.00 in   Overcast
11:49 PM 50.0 °F 50.0 °F 100% 30.02 in 0.8 mi Calm Calm - 0.00 in   Overcast
11:54 PM 50.0 °F 50.0 °F 100% 30.02 in 0.8 mi Calm Calm - 0.00 in   Overcast